sampling_time,wmo_synop_id,msc_id,stn_nam,stn_elev,lat,long,stn_typ,date_tm,rpt_typ,result_time,crnt_buoy_lat,crnt_buoy_lat_qa_summary,crnt_buoy_long,crnt_buoy_long_qa_summary,avg_air_temp_pst10mts,avg_air_temp_pst10mts_qa_summary,avg_sea_sfc_temp_pst10mts,avg_sea_sfc_temp_pst10mts_qa_summary,avg_batry_volt_pst10mts,avg_batry_volt_pst10mts_qa_summary,avg_solr_panl_crnt_pst10mts,avg_solr_panl_crnt_pst10mts_qa_summary,avg_wtr_lvl_snsr_volt_pst10mts,avg_wtr_lvl_snsr_volt_pst10mts_qa_summary,avg_wave_hgt_pst20mts,avg_wave_hgt_pst20mts_qa_summary,pk_wave_hgt_pst20mts,pk_wave_hgt_pst20mts_qa_summary,sig_wave_pd_pst20mts,sig_wave_pd_pst20mts_qa_summary,sig_wave_hgt_pst20mts,sig_wave_hgt_pst20mts_qa_summary,avg_max_wave_hgt_pst20mts,avg_max_wave_hgt_pst20mts_qa_summary,avg_max_wave_pd_pst20mts,avg_max_wave_pd_pst20mts_qa_summary,avg_wave_pd_pst20mts,avg_wave_pd_pst20mts_qa_summary,pk_wave_pd_pst20mts,pk_wave_pd_pst20mts_qa_summary,avg_stn_pres_pst10mts,avg_stn_pres_pst10mts_qa_summary,avg_wnd_spd_pst10mts,avg_wnd_spd_pst10mts_qa_summary,avg_wnd_dir_pst10mts,avg_wnd_dir_pst10mts_qa_summary,max_avg_wnd_spd_pst10mts,max_avg_wnd_spd_pst10mts_qa_summary,wnd_snsr_vert_disp,wnd_snsr_vert_disp_qa_summary,pres_tend_char_pst3hrs,pres_tend_char_pst3hrs_data_flag,pres_tend_amt_pst3hrs,pres_tend_amt_pst3hrs_data_flag,avg_mslp_pst10mts,avg_mslp_pst10mts_data_flag,avg_stn_pres_pst10mts_1,avg_stn_pres_pst10mts_2,avg_wnd_spd_pst10mts_1,avg_wnd_spd_pst10mts_2,avg_wnd_dir_pst10mts_1,avg_wnd_dir_pst10mts_2,max_avg_wnd_spd_pst10mts_1,max_avg_wnd_spd_pst10mts_2,wnd_snsr_vert_disp_1,wnd_snsr_vert_disp_2
2020-10-18T00:00:00Z,44490,9300300,West Bay of Fundy,0.0,44.66056,-66.3686,18,2020-10-18T00:00:00.000Z,108,2020-10-18T00:05:44.455Z,44.66512,100,-66.36298000000001,100,8.1,100,11.8,100,12.7,100,0.0,100,3.5,100,1.3,100,3.6,100,5.6,100,2.1,100,2.6,100,5.8,100,4.8,100,5.1,100,1023.6,100,46.1,100,297,100,56.9,100,5.0,100,1,1,6.8,1,1023.6,1,1023.6,1023.6,46.1,45.0,297,299,56.9,53.6,5.0,4.0
2020-10-18T00:10:00Z,44490,9300300,West Bay of Fundy,0.0,44.66056,-66.3686,18,2020-10-18T00:10:00.000Z,110,2020-10-18T00:13:20.639Z,44.66515,100,-66.363,100,8.7,100,12.4,100,12.6,100,0.0,100,3.5,100,,-1,,-1,,-1,,-1,,-1,,-1,,-1,,-1,1023.7,100,49.7,100,301,100,58.7,100,5.0,100,1,1,6.4,1,1023.7,1,1023.7,1023.7,49.7,48.6,301,303,58.7,56.9,5.0,4.0
2020-10-18T00:20:00Z,44490,9300300,West Bay of Fundy,0.0,44.66056,-66.3686,18,2020-10-18T00:20:00.000Z,110,2020-10-18T00:23:23.618Z,44.66522,100,-66.36308000000001,100,8.1,100,11.8,100,12.6,100,0.0,100,3.5,100,,-1,,-1,,-1,,-1,,-1,,-1,,-1,,-1,1023.8,100,48.2,100,305,100,58.3,100,5.0,100,1,1,6.1,1,1023.8,1,1023.8,1023.8,48.2,46.8,305,307,58.3,56.9,5.0,4.0
2020-10-18T00:30:00Z,44490,9300300,West Bay of Fundy,0.0,44.66056,-66.3686,18,2020-10-18T00:30:00.000Z,110,2020-10-18T00:33:23.632Z,44.66527,100,-66.36318,100,8.2,100,11.7,100,12.6,100,0.0,100,3.5,100,,-1,,-1,,-1,,-1,,-1,,-1,,-1,,-1,1024.1,100,46.1,100,308,100,55.4,100,5.0,100,1,1,5.8,1,1024.1,1,1024.1,1024.1,46.1,45.0,308,310,55.4,54.0,5.0,4.0
2020-10-18T00:40:00Z,44490,9300300,West Bay of Fundy,0.0,44.66056,-66.3686,18,2020-10-18T00:40:00.000Z,110,2020-10-18T00:43:39.137Z,44.66527,100,-66.36315,100,8.1,100,11.7,100,12.6,100,0.0,100,3.5,100,,-1,,-1,,-1,,-1,,-1,,-1,,-1,,-1,1024.4,100,45.7,100,307,100,54.4,100,5.0,100,1,1,5.6,1,1024.4,1,1024.4,1024.4,45.7,45.0,307,309,54.4,53.6,5.0,4.0
2020-10-18T00:50:00Z,44490,9300300,West Bay of Fundy,0.0,44.66056,-66.3686,18,2020-10-18T00:50:00.000Z,110,2020-10-18T00:53:36.088Z,44.665279999999996,100,-66.36318,100,8.2,100,11.7,100,12.6,100,0.0,100,3.5,100,,-1,,-1,,-1,,-1,,-1,,-1,,-1,,-1,1024.8,100,43.2,100,307,100,56.2,100,5.0,100,1,1,5.4,1,1024.8,1,1024.8,1024.8,43.2,42.5,307,309,56.2,54.0,5.0,4.0
2020-10-18T01:00:00Z,44490,9300300,West Bay of Fundy,0.0,44.66056,-66.3686,18,2020-10-18T01:00:00.000Z,108,2020-10-18T01:04:59.820Z,44.66528,100,-66.36313,100,8.2,100,11.7,100,12.6,100,0.0,100,3.5,100,1.4,100,4.0,100,6.0,100,2.1,100,2.8,100,6.2,100,5.0,100,7.4,100,1025.0,100,44.3,100,314,100,51.5,100,5.0,100,1,1,5.2,1,1025.0,1,1025.0,1025.0,44.3,43.6,314,316,51.5,51.8,5.0,4.0
2020-10-18T01:10:00Z,44490,9300300,West Bay of Fundy,0.0,44.66056,-66.3686,18,2020-10-18T01:10:00.000Z,110,2020-10-18T01:16:43.522Z,44.66527,100,-66.36313,100,8.3,100,11.7,100,12.6,100,0.0,100,3.5,100,,-1,,-1,,-1,,-1,,-1,,-1,,-1,,-1,1025.4,100,40.0,100,315,100,55.1,100,5.0,100,1,1,5.2,1,1025.4,1,1025.4,1025.4,40.0,39.6,315,316,55.1,54.7,5.0,4.0
2020-10-18T01:20:00Z,44490,9300300,West Bay of Fundy,0.0,44.66056,-66.3686,18,2020-10-18T01:20:00.000Z,110,2020-10-18T01:23:40.364Z,44.6653,100,-66.36312,100,8.4,100,11.7,100,12.6,100,0.0,100,3.5,100,,-1,,-1,,-1,,-1,,-1,,-1,,-1,,-1,1025.6,100,38.5,100,316,100,48.6,100,5.0,100,1,1,5.0,1,1025.6,1,1025.6,1025.6,38.5,38.2,316,318,48.6,47.9,5.0,4.0
2020-10-18T01:30:00Z,44490,9300300,West Bay of Fundy,0.0,44.66056,-66.3686,18,2020-10-18T01:30:00.000Z,110,2020-10-18T01:32:48.603Z,44.6653,100,-66.36313,100,8.2,100,11.6,100,12.6,100,0.0,100,3.5,100,,-1,,-1,,-1,,-1,,-1,,-1,,-1,,-1,1025.4,100,38.5,100,311,100,45.0,100,5.0,100,1,1,4.4,1,1025.4,1,1025.4,1025.4,38.5,38.5,311,313,45.0,45.4,5.0,4.0
2020-10-18T01:40:00Z,44490,9300300,West Bay of Fundy,0.0,44.66056,-66.3686,18,2020-10-18T01:40:00.000Z,110,2020-10-18T01:42:54.483Z,44.6653,100,-66.3632,100,7.9,100,11.6,100,12.6,100,0.0,100,3.5,100,,-1,,-1,,-1,,-1,,-1,,-1,,-1,,-1,1025.2,100,39.6,100,314,100,46.8,100,5.0,100,1,1,3.8,1,1025.2,1,1025.2,1025.2,39.6,39.2,314,316,46.8,46.4,5.0,4.0
2020-10-18T01:50:00Z,44490,9300300,West Bay of Fundy,0.0,44.66056,-66.3686,18,2020-10-18T01:50:00.000Z,110,2020-10-18T01:52:55.756Z,44.66535,100,-66.36325,100,7.9,100,11.6,100,12.5,100,0.0,100,3.5,100,,-1,,-1,,-1,,-1,,-1,,-1,,-1,,-1,1025.2,100,40.7,100,313,100,47.9,100,5.0,100,1,1,3.3,1,1025.2,1,1025.2,1025.2,40.7,40.0,313,315,47.9,47.5,5.0,4.0
2020-10-18T02:00:00Z,44490,9300300,West Bay of Fundy,0.0,44.66056,-66.3686,18,2020-10-18T02:00:00.000Z,108,2020-10-18T02:03:08.892Z,44.66535,100,-66.36332,100,8.0,100,11.5,100,12.6,100,0.0,100,3.5,100,1.2,100,3.1,100,5.3,100,1.8,100,2.2,100,5.4,100,4.6,100,4.7,100,1025.5,100,38.5,100,314,100,48.2,100,5.0,100,1,1,3.5,1,1025.5,1,1025.5,1025.5,38.5,38.2,314,316,48.2,47.9,5.0,4.0
2020-10-18T02:10:00Z,44490,9300300,West Bay of Fundy,0.0,44.66056,-66.3686,18,2020-10-18T02:10:00.000Z,110,2020-10-18T02:15:56.292Z,44.66542000000001,100,-66.36338,100,7.9,100,11.5,100,12.6,100,0.0,100,3.5,100,,-1,,-1,,-1,,-1,,-1,,-1,,-1,,-1,1025.5,100,36.4,100,314,100,43.9,100,5.0,100,1,1,3.2,1,1025.5,1,1025.5,1025.4,36.4,35.6,314,316,43.9,43.6,5.0,4.0
2020-10-18T02:20:00Z,44490,9300300,West Bay of Fundy,0.0,44.66056,-66.3686,18,2020-10-18T02:20:00.000Z,110,2020-10-18T02:22:56.461Z,44.66542000000001,100,-66.36341999999999,100,8.0,100,11.4,100,12.6,100,0.0,100,3.5,100,,-1,,-1,,-1,,-1,,-1,,-1,,-1,,-1,1025.3,100,35.6,100,317,100,44.3,100,5.0,100,0,1,2.8,1,1025.3,1,1025.3,1025.3,35.6,35.6,317,319,44.3,42.5,5.0,4.0
2020-10-18T02:30:00Z,44490,9300300,West Bay of Fundy,0.0,44.66056,-66.3686,18,2020-10-18T02:30:00.000Z,110,2020-10-18T02:33:02.522Z,44.66547,100,-66.36343000000001,100,8.1,100,11.4,100,12.6,100,0.0,100,3.5,100,,-1,,-1,,-1,,-1,,-1,,-1,,-1,,-1,1025.3,100,32.8,100,319,100,41.8,100,5.0,100,0,1,2.4,1,1025.3,1,1025.3,1025.3,32.8,32.8,319,321,41.8,42.1,5.0,4.0
2020-10-18T02:40:00Z,44490,9300300,West Bay of Fundy,0.0,44.66056,-66.3686,18,2020-10-18T02:40:00.000Z,110,2020-10-18T02:42:59.103Z,44.66547,100,-66.36346999999999,100,8.5,100,11.4,100,12.5,100,0.0,100,3.5,100,,-1,,-1,,-1,,-1,,-1,,-1,,-1,,-1,1025.7,100,31.3,100,318,100,37.8,100,5.0,100,1,1,2.6,1,1025.7,1,1025.7,1025.7,31.3,31.3,318,320,37.8,38.2,5.0,4.0
2020-10-18T02:50:00Z,44490,9300300,West Bay of Fundy,0.0,44.66056,-66.3686,18,2020-10-18T02:50:00.000Z,110,2020-10-18T02:52:59.408Z,44.66543,100,-66.36345,100,8.6,100,11.4,100,12.5,100,0.0,100,3.5,100,,-1,,-1,,-1,,-1,,-1,,-1,,-1,,-1,1025.8,100,34.9,100,323,100,42.8,100,5.0,100,1,1,2.4,1,1025.8,1,1025.8,1025.8,34.9,34.6,323,325,42.8,42.1,5.0,4.0
2020-10-18T03:00:00Z,44490,9300300,West Bay of Fundy,0.0,44.66056,-66.3686,18,2020-10-18T03:00:00.000Z,108,2020-10-18T03:03:15.632Z,44.66545,100,-66.36348000000001,100,8.7,100,11.4,100,12.5,100,0.0,100,3.5,100,1.0,100,2.6,100,5.0,100,1.5,100,1.8,100,4.8,100,4.4,100,4.8,100,1025.9,100,33.1,100,321,100,41.4,100,5.0,100,1,1,2.3,1,1025.9,1,1025.9,1025.9,33.1,32.8,321,323,41.4,41.4,5.0,4.0
2020-10-18T03:10:00Z,44490,9300300,West Bay of Fundy,0.0,44.66056,-66.3686,18,2020-10-18T03:10:00.000Z,110,2020-10-18T03:16:15.922Z,44.66543,100,-66.36346999999999,100,8.7,100,11.4,100,12.5,100,0.0,100,3.5,100,,-1,,-1,,-1,,-1,,-1,,-1,,-1,,-1,1026.2,100,32.4,100,320,100,39.6,100,5.0,100,1,1,2.5,1,1026.2,1,1026.2,1026.2,32.4,31.7,320,322,39.6,38.2,5.0,4.0
2020-10-18T03:20:00Z,44490,9300300,West Bay of Fundy,0.0,44.66056,-66.3686,18,2020-10-18T03:20:00.000Z,110,2020-10-18T03:23:17.255Z,44.66542000000001,100,-66.3635,100,8.8,100,11.5,100,12.6,100,0.0,100,3.5,100,,-1,,-1,,-1,,-1,,-1,,-1,,-1,,-1,1026.5,100,31.0,100,321,100,38.9,100,5.0,100,1,1,2.7,1,1026.5,1,1026.5,1026.4,31.0,30.2,321,323,38.9,38.2,5.0,4.0
2020-10-18T03:30:00Z,44490,9300300,West Bay of Fundy,0.0,44.66056,-66.3686,18,2020-10-18T03:30:00.000Z,110,2020-10-18T03:33:26.652Z,44.6654,100,-66.36355,100,8.9,100,11.5,100,12.6,100,0.0,100,3.5,100,,-1,,-1,,-1,,-1,,-1,,-1,,-1,,-1,1027.1,100,27.7,100,316,100,34.6,100,5.0,100,3,1,3.0,1,1027.1,1,1027.1,1027.1,27.7,27.0,316,318,34.6,34.6,5.0,4.0
2020-10-18T03:40:00Z,44490,9300300,West Bay of Fundy,0.0,44.66056,-66.3686,18,2020-10-18T03:40:00.000Z,110,2020-10-18T03:43:14.144Z,44.66545,100,-66.36375,100,8.9,100,11.5,100,12.5,100,0.0,100,3.5,100,,-1,,-1,,-1,,-1,,-1,,-1,,-1,,-1,1027.6,100,23.4,100,310,100,28.1,100,5.0,100,3,1,3.2,1,1027.6,1,1027.6,1027.6,23.4,23.0,310,312,28.1,28.4,5.0,4.0
2020-10-18T03:50:00Z,44490,9300300,West Bay of Fundy,0.0,44.66056,-66.3686,18,2020-10-18T03:50:00.000Z,110,2020-10-18T03:53:19.108Z,44.66547,100,-66.36395,100,8.9,100,11.5,100,12.5,100,0.0,100,3.5,100,,-1,,-1,,-1,,-1,,-1,,-1,,-1,,-1,1027.9,100,20.9,100,311,100,27.7,100,5.0,100,3,1,3.1,1,1027.9,1,1027.9,1027.9,20.9,20.5,311,314,27.7,27.4,5.0,4.0
2020-10-18T04:00:00Z,44490,9300300,West Bay of Fundy,0.0,44.66056,-66.3686,18,2020-10-18T04:00:00.000Z,108,2020-10-18T04:03:30.773Z,44.66538,100,-66.36405,100,9.0,100,11.5,100,12.5,100,0.0,100,3.5,100,0.8,100,1.9,100,5.2,100,1.3,100,1.6,100,5.3,100,4.3,100,7.1,100,1028.2,100,19.1,100,317,100,26.3,100,5.0,100,3,1,3.2,1,1028.2,1,1028.2,1028.2,19.1,18.4,317,320,26.3,26.6,5.0,4.0
2020-10-18T04:10:00Z,44490,9300300,West Bay of Fundy,0.0,44.66056,-66.3686,18,2020-10-18T04:10:00.000Z,110,2020-10-18T04:16:29.336Z,44.66532,100,-66.36425,100,9.0,100,11.5,100,12.5,100,0.0,100,3.5,100,,-1,,-1,,-1,,-1,,-1,,-1,,-1,,-1,1028.5,100,19.8,100,314,100,23.8,100,5.0,100,3,1,3.1,1,1028.5,1,1028.5,1028.5,19.8,19.1,314,316,23.8,23.8,5.0,4.0
2020-10-18T04:20:00Z,44490,9300300,West Bay of Fundy,0.0,44.66056,-66.3686,18,2020-10-18T04:20:00.000Z,110,2020-10-18T04:23:36.643Z,44.6652,100,-66.36465,100,9.1,100,11.5,100,12.5,100,0.0,100,3.5,100,,-1,,-1,,-1,,-1,,-1,,-1,,-1,,-1,1029.0,100,19.1,100,318,100,23.4,100,5.0,100,3,1,3.4,1,1029.0,1,1029.0,1028.9,19.1,18.0,318,320,23.4,23.4,5.0,4.0
2020-10-18T04:30:00Z,44490,9300300,West Bay of Fundy,0.0,44.66056,-66.3686,18,2020-10-18T04:30:00.000Z,110,2020-10-18T04:33:44.752Z,44.66503,100,-66.36523000000001,100,9.1,100,11.5,100,12.5,100,0.0,100,3.5,100,,-1,,-1,,-1,,-1,,-1,,-1,,-1,,-1,1029.2,100,19.4,100,312,100,24.1,100,5.0,100,3,1,3.8,1,1029.2,1,1029.2,1029.2,19.4,18.0,312,314,24.1,23.4,5.0,4.0
2020-10-18T04:40:00Z,44490,9300300,West Bay of Fundy,0.0,44.66056,-66.3686,18,2020-10-18T04:40:00.000Z,110,2020-10-18T04:43:36.430Z,44.66483,100,-66.366,100,8.9,100,11.5,100,12.5,100,0.0,100,3.5,100,,-1,,-1,,-1,,-1,,-1,,-1,,-1,,-1,1029.4,100,19.1,100,281,100,22.7,100,5.0,100,3,1,4.2,1,1029.4,1,1029.4,1029.4,19.1,19.1,281,284,22.7,22.7,5.0,4.0
2020-10-18T04:50:00Z,44490,9300300,West Bay of Fundy,0.0,44.66056,-66.3686,18,2020-10-18T04:50:00.000Z,110,2020-10-18T04:53:41.180Z,44.66448,100,-66.36675,100,8.7,100,11.4,100,12.5,100,0.0,100,3.5,100,,-1,,-1,,-1,,-1,,-1,,-1,,-1,,-1,1029.7,100,19.1,100,279,100,22.7,100,5.0,100,3,1,4.5,1,1029.7,1,1029.7,1029.6,19.1,19.1,279,282,22.7,22.7,5.0,4.0
2020-10-18T05:00:00Z,44490,9300300,West Bay of Fundy,0.0,44.66056,-66.3686,18,2020-10-18T05:00:00.000Z,108,2020-10-18T05:03:38.302Z,44.66392000000001,100,-66.36712,100,8.6,100,11.4,100,12.5,100,0.0,100,3.5,100,0.7,100,1.7,100,5.4,100,1.1,100,1.3,100,5.9,100,4.4,100,7.7,100,1030.0,100,17.6,100,274,100,22.3,100,5.0,100,3,1,4.5,1,1030.0,1,1030.0,1030.0,17.6,17.3,274,278,22.3,22.7,5.0,4.0
2020-10-18T05:10:00Z,44490,9300300,West Bay of Fundy,0.0,44.66056,-66.3686,18,2020-10-18T05:10:00.000Z,110,2020-10-18T05:15:40.299Z,44.66343,100,-66.3671,100,8.6,100,11.4,100,12.5,100,0.0,100,3.5,100,,-1,,-1,,-1,,-1,,-1,,-1,,-1,,-1,1030.3,100,16.6,100,266,100,20.2,100,5.0,100,3,1,4.9,1,1030.3,1,1030.3,1030.3,16.6,16.2,266,270,20.2,19.4,5.0,4.0
2020-10-18T05:20:00Z,44490,9300300,West Bay of Fundy,0.0,44.66056,-66.3686,18,2020-10-18T05:20:00.000Z,110,2020-10-18T05:22:38.007Z,44.66312,100,-66.36703,100,8.6,100,11.4,100,12.5,100,0.0,100,3.5,100,,-1,,-1,,-1,,-1,,-1,,-1,,-1,,-1,1030.5,100,17.6,100,264,100,23.4,100,5.0,100,3,1,5.2,1,1030.5,1,1030.5,1030.5,17.6,16.9,264,268,23.4,22.7,5.0,4.0
2020-10-18T05:30:00Z,44490,9300300,West Bay of Fundy,0.0,44.66056,-66.3686,18,2020-10-18T05:30:00.000Z,110,2020-10-18T05:32:49.042Z,44.66307000000001,100,-66.36705,100,8.6,100,11.3,100,12.5,100,0.0,100,3.5,100,,-1,,-1,,-1,,-1,,-1,,-1,,-1,,-1,1030.7,100,19.4,100,274,100,24.1,100,5.0,100,1,1,5.4,1,1030.7,1,1030.7,1030.6,19.4,19.1,274,278,24.1,23.8,5.0,4.0
2020-10-18T05:40:00Z,44490,9300300,West Bay of Fundy,0.0,44.66056,-66.3686,18,2020-10-18T05:40:00.000Z,110,2020-10-18T05:42:59.941Z,44.66302,100,-66.36707,100,8.7,100,11.3,100,12.5,100,0.0,100,3.5,100,,-1,,-1,,-1,,-1,,-1,,-1,,-1,,-1,1030.9,100,18.4,100,275,100,23.4,100,5.0,100,1,1,5.1,1,1030.9,1,1030.9,1030.9,18.4,18.0,275,279,23.4,22.7,5.0,4.0
2020-10-18T05:50:00Z,44490,9300300,West Bay of Fundy,0.0,44.66056,-66.3686,18,2020-10-18T05:50:00.000Z,110,2020-10-18T05:53:04.425Z,44.66305,100,-66.36705,100,8.7,100,11.3,100,12.5,100,0.0,100,3.5,100,,-1,,-1,,-1,,-1,,-1,,-1,,-1,,-1,1031.1,100,18.0,100,273,100,24.1,100,5.0,100,1,1,5.2,1,1031.1,1,1031.1,1031.0,18.0,17.6,273,277,24.1,23.0,5.0,4.0
2020-10-18T06:00:00Z,44490,9300300,West Bay of Fundy,0.0,44.66056,-66.3686,18,2020-10-18T06:00:00.000Z,108,2020-10-18T06:03:30.530Z,44.6629,100,-66.36702,100,8.9,100,11.2,100,12.5,100,0.0,100,3.5,100,0.7,100,1.7,100,5.7,100,1.0,100,1.3,100,5.9,100,4.6,100,7.7,100,1031.3,100,20.2,100,267,100,25.2,100,5.0,100,1,1,5.3,1,1031.3,1,1031.3,1031.2,20.2,19.4,267,270,25.2,24.1,5.0,4.0
2020-10-18T06:10:00Z,44490,9300300,West Bay of Fundy,0.0,44.66056,-66.3686,18,2020-10-18T06:10:00.000Z,110,2020-10-18T06:16:03.730Z,44.66282,100,-66.36703,100,9.0,100,11.2,100,12.5,100,0.0,100,3.5,100,,-1,,-1,,-1,,-1,,-1,,-1,,-1,,-1,1031.4,100,20.2,100,262,100,24.8,100,5.0,100,1,1,5.2,1,1031.4,1,1031.4,1031.3,20.2,19.8,262,266,24.8,24.5,5.0,4.0
2020-10-18T06:20:00Z,44490,9300300,West Bay of Fundy,0.0,44.66056,-66.3686,18,2020-10-18T06:20:00.000Z,110,2020-10-18T06:23:17.736Z,44.66275,100,-66.36708,100,9.0,100,11.2,100,12.5,100,0.0,100,3.5,100,,-1,,-1,,-1,,-1,,-1,,-1,,-1,,-1,1031.4,100,19.8,100,262,100,23.0,100,5.0,100,1,1,4.9,1,1031.4,1,1031.4,1031.4,19.8,19.1,262,265,23.0,22.7,5.0,4.0
2020-10-18T06:30:00Z,44490,9300300,West Bay of Fundy,0.0,44.66056,-66.3686,18,2020-10-18T06:30:00.000Z,110,2020-10-18T06:33:11.521Z,44.6627,100,-66.36717,100,9.2,100,11.5,100,12.5,100,0.0,100,3.5,100,,-1,,-1,,-1,,-1,,-1,,-1,,-1,,-1,1031.5,100,18.4,100,260,100,23.4,100,5.0,100,1,1,4.4,1,1031.5,1,1031.5,1031.4,18.4,17.6,260,264,23.4,23.0,5.0,4.0
2020-10-18T06:40:00Z,44490,9300300,West Bay of Fundy,0.0,44.66056,-66.3686,18,2020-10-18T06:40:00.000Z,110,2020-10-18T06:43:10.851Z,44.66268,100,-66.36717,100,9.4,100,11.7,100,12.5,100,0.0,100,3.5,100,,-1,,-1,,-1,,-1,,-1,,-1,,-1,,-1,1031.7,100,18.4,100,263,100,22.3,100,5.0,100,1,1,4.1,1,1031.7,1,1031.7,1031.7,18.4,18.0,263,266,22.3,21.6,5.0,4.0
2020-10-18T06:50:00Z,44490,9300300,West Bay of Fundy,0.0,44.66056,-66.3686,18,2020-10-18T06:50:00.000Z,110,2020-10-18T06:53:28.971Z,44.6627,100,-66.36721999999999,100,9.5,100,11.8,100,12.5,100,0.0,100,3.5,100,,-1,,-1,,-1,,-1,,-1,,-1,,-1,,-1,1031.8,100,18.0,100,255,100,22.3,100,5.0,100,1,1,3.9,1,1031.8,1,1031.8,1031.8,18.0,17.6,255,258,22.3,21.2,5.0,4.0
2020-10-18T07:00:00Z,44490,9300300,West Bay of Fundy,0.0,44.66056,-66.3686,18,2020-10-18T07:00:00.000Z,108,2020-10-18T07:03:20.420Z,44.66268,100,-66.3672,100,9.6,100,11.8,100,12.5,100,0.0,100,3.5,100,0.5,100,1.3,100,6.3,100,0.8,100,1.1,100,6.6,100,5.0,100,7.7,100,1031.9,100,19.1,100,266,100,24.5,100,5.0,100,1,1,3.7,1,1031.9,1,1031.9,1031.8,19.1,18.4,266,269,24.5,24.5,5.0,4.0
2020-10-18T07:10:00Z,44490,9300300,West Bay of Fundy,0.0,44.66056,-66.3686,18,2020-10-18T07:10:00.000Z,110,2020-10-18T07:16:26.372Z,44.66265,100,-66.36712,100,9.7,100,11.8,100,12.5,100,0.0,100,3.5,100,,-1,,-1,,-1,,-1,,-1,,-1,,-1,,-1,1031.9,100,18.7,100,262,100,23.8,100,5.0,100,1,1,3.4,1,1031.9,1,1031.9,1031.9,18.7,18.4,262,265,23.8,23.0,5.0,4.0
2020-10-18T07:20:00Z,44490,9300300,West Bay of Fundy,0.0,44.66056,-66.3686,18,2020-10-18T07:20:00.000Z,110,2020-10-18T07:23:28.172Z,44.662620000000004,100,-66.3671,100,9.8,100,11.8,100,12.5,100,0.0,100,3.5,100,,-1,,-1,,-1,,-1,,-1,,-1,,-1,,-1,1031.9,100,19.8,100,271,100,25.9,100,5.0,100,1,1,2.9,1,1031.9,1,1031.9,1031.9,19.8,19.4,271,275,25.9,25.2,5.0,4.0
2020-10-18T07:30:00Z,44490,9300300,West Bay of Fundy,0.0,44.66056,-66.3686,18,2020-10-18T07:30:00.000Z,110,2020-10-18T07:33:29.278Z,44.66252,100,-66.36695,100,9.9,100,11.8,100,12.5,100,0.0,100,3.5,100,,-1,,-1,,-1,,-1,,-1,,-1,,-1,,-1,1032.1,100,21.6,100,272,100,26.3,100,5.0,100,1,1,2.9,1,1032.1,1,1032.1,1032.0,21.6,20.9,272,276,26.3,25.9,5.0,4.0
2020-10-18T07:40:00Z,44490,9300300,West Bay of Fundy,0.0,44.66056,-66.3686,18,2020-10-18T07:40:00.000Z,110,2020-10-18T07:44:28.862Z,44.66245,100,-66.36688000000001,100,9.9,100,11.8,100,12.5,100,0.0,100,3.5,100,,-1,,-1,,-1,,-1,,-1,,-1,,-1,,-1,1032.2,100,19.4,100,269,100,24.1,100,5.0,100,1,1,2.8,1,1032.2,1,1032.2,1032.2,19.4,19.1,269,272,24.1,24.5,5.0,4.0
2020-10-18T07:50:00Z,44490,9300300,West Bay of Fundy,0.0,44.66056,-66.3686,18,2020-10-18T07:50:00.000Z,110,2020-10-18T07:53:29.078Z,44.66245,100,-66.36685,100,9.9,100,11.8,100,12.5,100,0.0,100,3.5,100,,-1,,-1,,-1,,-1,,-1,,-1,,-1,,-1,1032.4,100,19.1,100,266,100,23.8,100,5.0,100,1,1,2.7,1,1032.4,1,1032.4,1032.3,19.1,18.7,266,270,23.8,23.0,5.0,4.0
2020-10-18T08:00:00Z,44490,9300300,West Bay of Fundy,0.0,44.66056,-66.3686,18,2020-10-18T08:00:00.000Z,108,2020-10-18T08:03:29.571Z,44.6624,100,-66.36675,100,10.0,100,11.8,100,12.5,100,0.0,100,3.5,100,0.4,100,1.2,100,6.0,100,0.7,100,0.8,100,6.3,100,4.5,100,6.9,100,1032.5,100,17.3,100,265,100,22.7,100,5.0,100,1,1,2.4,1,1032.5,1,1032.5,1032.4,17.3,16.9,265,269,22.7,22.3,5.0,4.0
2020-10-18T08:10:00Z,44490,9300300,West Bay of Fundy,0.0,44.66056,-66.3686,18,2020-10-18T08:10:00.000Z,110,2020-10-18T08:15:40.127Z,44.66237,100,-66.36665,100,10.1,100,11.8,100,12.5,100,0.0,100,3.5,100,,-1,,-1,,-1,,-1,,-1,,-1,,-1,,-1,1032.6,100,18.0,100,273,100,22.3,100,5.0,100,1,1,2.3,1,1032.6,1,1032.6,1032.6,18.0,17.6,273,277,22.3,22.3,5.0,4.0
2020-10-18T08:20:00Z,44490,9300300,West Bay of Fundy,0.0,44.66056,-66.3686,18,2020-10-18T08:20:00.000Z,110,2020-10-18T08:22:42.468Z,44.66237,100,-66.36663,100,10.1,100,11.8,100,12.5,100,0.0,100,3.5,100,,-1,,-1,,-1,,-1,,-1,,-1,,-1,,-1,1032.7,100,18.4,100,271,100,23.4,100,5.0,100,1,1,2.2,1,1032.7,1,1032.7,1032.7,18.4,18.0,271,274,23.4,23.0,5.0,4.0
2020-10-18T08:30:00Z,44490,9300300,West Bay of Fundy,0.0,44.66056,-66.3686,18,2020-10-18T08:30:00.000Z,110,2020-10-18T08:32:44.543Z,44.6623,100,-66.36655,100,10.2,100,11.8,100,12.5,100,0.0,100,3.5,100,,-1,,-1,,-1,,-1,,-1,,-1,,-1,,-1,1032.8,100,20.9,100,274,100,24.8,100,5.0,100,2,1,2.2,1,1032.8,1,1032.8,1032.8,20.9,20.5,274,278,24.8,24.5,5.0,4.0
2020-10-18T08:40:00Z,44490,9300300,West Bay of Fundy,0.0,44.66056,-66.3686,18,2020-10-18T08:40:00.000Z,110,2020-10-18T08:42:44.162Z,44.66232,100,-66.3666,100,10.3,100,11.8,100,12.5,100,0.0,100,3.5,100,,-1,,-1,,-1,,-1,,-1,,-1,,-1,,-1,1033.0,100,21.2,100,280,100,26.6,100,5.0,100,1,1,2.1,1,1033.0,1,1033.0,1032.9,21.2,20.9,280,284,26.6,26.3,5.0,4.0
2020-10-18T08:50:00Z,44490,9300300,West Bay of Fundy,0.0,44.66056,-66.3686,18,2020-10-18T08:50:00.000Z,110,2020-10-18T08:52:55.186Z,44.66232,100,-66.36658,100,10.3,100,11.8,100,12.5,100,0.0,100,3.5,100,,-1,,-1,,-1,,-1,,-1,,-1,,-1,,-1,1033.1,100,21.2,100,283,100,25.6,100,5.0,100,2,1,2.0,1,1033.1,1,1033.1,1033.1,21.2,21.2,283,287,25.6,25.6,5.0,4.0
2020-10-18T09:00:00Z,44490,9300300,West Bay of Fundy,0.0,44.66056,-66.3686,18,2020-10-18T09:00:00.000Z,108,2020-10-18T09:03:25.654Z,44.66232,100,-66.36658,100,10.2,100,11.8,100,12.5,100,0.0,100,3.5,100,0.5,100,1.2,100,6.1,100,0.7,100,0.8,100,6.2,100,4.4,100,8.0,100,1033.1,100,22.3,100,291,100,25.9,100,5.0,100,2,1,1.8,1,1033.1,1,1033.1,1033.1,22.3,22.3,291,294,25.9,25.9,5.0,4.0
2020-10-18T09:10:00Z,44490,9300300,West Bay of Fundy,0.0,44.66056,-66.3686,18,2020-10-18T09:10:00.000Z,110,2020-10-18T09:15:56.798Z,44.66233,100,-66.3666,100,10.2,100,11.8,100,12.5,100,0.0,100,3.5,100,,-1,,-1,,-1,,-1,,-1,,-1,,-1,,-1,1033.2,100,23.8,100,298,100,27.7,100,5.0,100,3,1,1.9,1,1033.2,1,1033.2,1033.2,23.8,23.8,298,301,27.7,27.7,5.0,4.0
2020-10-18T09:20:00Z,44490,9300300,West Bay of Fundy,0.0,44.66056,-66.3686,18,2020-10-18T09:20:00.000Z,110,2020-10-18T09:22:58.005Z,44.66233,100,-66.36655,100,10.2,100,11.8,100,12.5,100,0.0,100,3.5,100,,-1,,-1,,-1,,-1,,-1,,-1,,-1,,-1,1033.4,100,25.6,100,301,100,29.9,100,5.0,100,3,1,2.0,1,1033.4,1,1033.4,1033.4,25.6,25.6,301,305,29.9,29.9,5.0,4.0
2020-10-18T09:30:00Z,44490,9300300,West Bay of Fundy,0.0,44.66056,-66.3686,18,2020-10-18T09:30:00.000Z,110,2020-10-18T09:33:00.908Z,44.66233,100,-66.36648000000001,100,10.2,100,11.8,100,12.5,100,0.0,100,3.5,100,,-1,,-1,,-1,,-1,,-1,,-1,,-1,,-1,1033.6,100,26.6,100,306,100,31.0,100,5.0,100,3,1,2.1,1,1033.6,1,1033.6,1033.6,26.6,27.0,306,309,31.0,31.3,5.0,4.0
2020-10-18T09:40:00Z,44490,9300300,West Bay of Fundy,0.0,44.66056,-66.3686,18,2020-10-18T09:40:00.000Z,110,2020-10-18T09:43:00.231Z,44.66237,100,-66.3664,100,10.2,100,11.8,100,12.5,100,0.0,100,3.5,100,,-1,,-1,,-1,,-1,,-1,,-1,,-1,,-1,1033.8,100,26.6,100,307,100,31.7,100,5.0,100,3,1,2.1,1,1033.8,1,1033.8,1033.8,26.6,26.6,307,310,31.7,31.3,5.0,4.0
2020-10-18T09:50:00Z,44490,9300300,West Bay of Fundy,0.0,44.66056,-66.3686,18,2020-10-18T09:50:00.000Z,110,2020-10-18T09:53:04.393Z,44.66237,100,-66.36618,100,10.1,100,11.8,100,12.5,100,0.0,100,3.5,100,,-1,,-1,,-1,,-1,,-1,,-1,,-1,,-1,1033.9,100,26.3,100,314,100,30.6,100,5.0,100,3,1,2.1,1,1033.9,1,1033.9,1033.9,26.3,25.6,314,317,30.6,29.9,5.0,4.0
2020-10-18T10:00:00Z,44490,9300300,West Bay of Fundy,0.0,44.66056,-66.3686,18,2020-10-18T10:00:00.000Z,108,2020-10-18T10:03:10.942Z,44.66247,100,-66.36605,100,10.1,100,11.8,100,12.5,100,0.0,100,3.5,100,0.4,100,1.1,100,5.1,100,0.7,100,0.8,100,6.0,100,3.9,100,6.9,100,1033.9,100,24.8,100,329,100,28.8,100,5.0,100,3,1,2.1,1,1033.9,1,1033.9,1033.9,24.8,23.4,329,332,28.8,28.1,5.0,4.0
2020-10-18T10:10:00Z,44490,9300300,West Bay of Fundy,0.0,44.66056,-66.3686,18,2020-10-18T10:10:00.000Z,110,2020-10-18T10:16:05.963Z,44.66255,100,-66.36572,100,10.1,100,11.8,100,12.5,100,0.0,100,3.5,100,,-1,,-1,,-1,,-1,,-1,,-1,,-1,,-1,1034.0,100,24.5,100,330,100,28.8,100,5.0,100,3,1,2.1,1,1034.0,1,1034.0,1034.0,24.5,23.4,330,332,28.8,27.0,5.0,4.0